Location: Newark
(46.7000°N, 60.6000°W)
Time: 12:11:41
(UTC+00:00)

A-11 Canister half - Pass Details

Date: 30 October 2020
Orbit: 1525 x 1684 km, 47.3° (Epoch: 01 December)

Event Time Altitude Azimuth Distance (km) Brightness Sun altitude
Rises 17:25:43 0° 220° (SW) 4,815 12.9 25.2°
Reaches altitude 10° 17:28:58 10° 216° (SW) 3,809 12.9 25.0°
Maximum altitude 17:38:06 50° 145° (SE) 1,928 10.1 24.2°
Drops below altitude 10° 17:46:59 10° 74° (ENE) 3,716 10.7 23.4°
Sets 17:50:06 0° 69° (ENE) 4,690 11.1 23.1°
